Regional Weather Roundup
Issued by NWS

Home | Current Version | Previous Version | Graphics & Text | Print | Product List | Glossary On
Versions: 1 2 3 4 5 6 7 8 9 10 11 12 13 14 15 16 17 18 19 20 21 22 23 24 25 26 27 28 29 30 31 32 33 34 35 36 37 38 39 40 41 42 43 44 45 46 47 48 49 50
000
ASUS45 KABQ 161210
RWRNM
WEATHER ROUNDUP FOR NEW MEXICO
NATIONAL WEATHER SERVICE ALBUQUERQUE NM
600 AM MDT TUE SEP 16 2014

NOTE: "FAIR" MEANS FEW OR NO CLOUDS BELOW 12,000 FEET AGL WITH NO
       SIGNIFICANT WEATHER OR OBSTRUCTIONS TO VISION.

      THIS PRODUCT IS RELEASED AS TWO VERSIONS.  ONE VERSION NEAR
      THE TOP OF THE HOUR CONTAINING PRELIMINARY DATA FROM ALBUQUERQUE
      AND OTHER STATIONS.  A FINAL VERSION WITH ADDITIONAL DATA IS
      ISSUED ABOUT 10 MINUTES AFTER THE HOUR.

NMZ501-503-504-510>518-161300-
NORTHWEST PLATEAU/NORTHCENTRAL MOUNTAINS

CITY           SKY/WX    TMP DP  RH WIND       PRES   REMARKS
FARMINGTON     CLEAR     56  43  61 E3        30.27S
6HR MIN TEMP:  55; 6HR MAX TEMP:  72;

LOS ALAMOS     MOCLDY    57  53  88 S3        30.40F
SANTA FE       CLOUDY    60  52  74 CALM      30.35F
6HR MIN TEMP:  58; 6HR MAX TEMP:  62;

ANGEL FIRE     FAIR      38  36  92 CALM      30.49S

$$
NMZ402-403-502-505>509-161300-
WESTCENTRAL MOUNTAINS/SOUTHWEST MOUNTAINS

CITY           SKY/WX    TMP DP  RH WIND       PRES   REMARKS
GALLUP         MOCLDY    57  50  77 CALM      30.31R
6HR MIN TEMP:  56; 6HR MAX TEMP:  64; 6HR PCP:  0.01;

GRANTS         CLOUDY    57  54  88 S3        30.35S
SILVER CITY    LGT RAIN  63  61  94 CALM      30.29S

$$
NMZ407-409-411-412-161300-
SOUTHERN DESERTS

CITY           SKY/WX    TMP DP  RH WIND       PRES   REMARKS
LORDSBURG      DRIZZLE   63  63 100 SE6       30.18F
DEMING         LGT RAIN  66  65  96 NE9       30.20F
6HR MIN TEMP:  65; 6HR MAX TEMP:  70; 6HR PCP:  0.17;

LAS CRUCES     CLOUDY    64  63  96 SE5       30.24S
HOLLOMAN AFB   MOCLDY    67  64  91 S5        30.21R
ALAMOGORDO     CLOUDY    66  64  94 W5        30.23R
T OR C         LGT RAIN  64  62  93 NE6       30.25R
6HR MIN TEMP:  63; 6HR MAX TEMP:  71; 6HR PCP:  0.02;


$$
NMZ519>523-161300-
CENTRAL VALLEYS/CENTRAL HIGHLANDS

CITY           SKY/WX    TMP DP  RH WIND       PRES   REMARKS
ALBUQUERQUE    CLOUDY    66  55  67 E10       30.29S
6HR MIN TEMP:  65; 6HR MAX TEMP:  68; 6HR PCP: TRACE;

DOUBLE EAGLE   PTCLDY    61  57  88 N6        30.32S
MORIARTY ARPT  CLOUDY    57  55  91 CALM      30.37S
6HR MIN TEMP:  56; 6HR MAX TEMP:  60;

CLINES CORNERS CLOUDY    55  53  93 CALM      30.38R
6HR MIN TEMP:  54; 6HR MAX TEMP:  56;

BELEN          CLOUDY    64  59  82 W3        30.29R
6HR MIN TEMP:  62; 6HR MAX TEMP:  65;

SOCORRO        LGT RAIN  64  63  96 CALM      30.27S
6HR MIN TEMP:  64; 6HR MAX TEMP:  65; 6HR PCP:  0.35;


$$
NMZ524>526-539-540-161300-
SOUTHCENTRAL MOUNTAINS

CITY           SKY/WX    TMP DP  RH WIND       PRES   REMARKS
RUIDOSO        NOT AVBL

$$
NMZ527>531-161300-
NORTHEAST HIGHLANDS/NORTHEAST PLAINS

CITY           SKY/WX    TMP DP  RH WIND       PRES   REMARKS
LAS VEGAS      CLOUDY    53  52  96 S12       30.38R
6HR MIN TEMP:  52; 6HR MAX TEMP:  55;

RATON          CLOUDY    55  51  86 SW3       30.33S
6HR MIN TEMP:  53; 6HR MAX TEMP:  55;

CLAYTON        PTCLDY    52  50  93 SW9       30.27F
6HR MIN TEMP:  52; 6HR MAX TEMP:  56;


$$
NMZ532>537-161300-
EASTCENTRAL PLAINS

CITY           SKY/WX    TMP DP  RH WIND       PRES   REMARKS
TUCUMCARI      CLOUDY    62  56  80 CALM      30.26F
6HR MIN TEMP:  62; 6HR MAX TEMP:  63;

CANNON AFB     CLOUDY    61  57  88 NE8       30.28S FOG
6HR MIN TEMP:  60; 6HR MAX TEMP:  61;

CLOVIS AIRPORT   N/A     61  57  88 NE7       30.30S

$$
NMZ028-029-538-161300-
SOUTHEAST PLAINS

CITY           SKY/WX    TMP DP  RH WIND       PRES   REMARKS
ROSWELL        CLOUDY    67  64  90 CALM      30.23R
6HR MIN TEMP:  66; 6HR MAX TEMP:  69;

CARLSBAD       CLOUDY    69  69 100 NE5       30.19S FOG
6HR MIN TEMP:  69; 6HR MAX TEMP:  70; 6HR PCP: TRACE;

HOBBS          CLOUDY    66  66 100 CALM      30.24  FOG


$$


USA.gov is the U.S. government's official web portal to all federal, state and local government web resources and services.